Location: Huppendorf
(49.9333°N, 11.1500°E)
Time: 04:03:26
(UTC+00:00)

CENTAUR R/B - Pass Details

Date: 27 February 2020
Orbit: 766 x 1422 km, 63.5° (Epoch: 06 April)

Event Time Altitude Azimuth Distance (km) Brightness Sun altitude
Rises 19:09:25 0° 315° (NW) 4,025 6.7 -22.5°
Reaches altitude 10° 19:12:02 10° 318° (NW) 3,148 5.9 -22.9°
Maximum altitude 19:19:45 65° 41° (NE) 1,438 3.2 -24.1°
Enters shadow 19:22:38 44° 104° (ESE) 1,817 3.4 -24.6°
